ISX (CP 11) (43856 NORAD) Tracking and Keplerian Element Data

This shows tracking and keplerian element data for the satellite.

Feedback or suggestion? Click here.




ElementValue
Catalog43856
NameISX (CP 11)
Epoch Orbit441
Epoch Day14.33548084
Epoch Year2019
RAAN159.1558
Inclination85.0322
Eccentricity0.0014218
Argument of Perigee189.4876
Mean Anonmoly170.6248
Mean Motion15.19946873
Decay Rate4.1E-07
L11 43856U 18104H 19014.33548084 .00000041 00000-0 00000+0 0 9994
L22 43856 85.0322 159.1558 0014218 189.4876 170.6248 15.19946873 4411

Live tracking and technical data element details for ISX (CP 11) (NORAD 43856). ISX (CP 11) can be tracked NOW for your location showing map with azimuth and elevation plus other details from your city location.

Track the satellite on the map from your city or location and see movement details for azimuth, elevation, latitude, longitude, range, height, and movement on the map or in text.







IsCatalogInMostPopularTable: catalog: 43856, numindb: 56
Update: records affected: 1



GetName: 43856 ISX (CP 11)

Hit Count: updated at: Sun, 26 May 2019 08:54:02 GMT